Regional Weather Roundup
Issued by NWS

Home | Current Version | Previous Version | Text Only | Print | Product List | Glossary On
Versions: 1 2 3 4 5 6 7 8 9 10 11 12 13 14 15 16 17 18 19 20 21 22 23 24 25 26 27 28 29 30 31 32 33 34 35 36 37 38 39 40 41 42 43 44 45 46 47 48 49 50
000
ASUS44 KMEG 190610
RWRTN
TENNESSEE HOURLY STATE WEATHER ROUNDUP
NATIONAL WEATHER SERVICE MEMPHIS TN
100 AM CDT FRI SEP 19 2014

TNZ002-004-019-021-049-052-054-088>092-190700-
WEST TENNESSEE

CITY           SKY/WX    TMP DP  RH WIND       PRES   REMARKS
MEMPHIS INTL   PTCLDY    71  65  81 E6        30.01S
NWS MEMPHIS      N/A     67 N/A N/A MISG        N/A
JACKSON        MOCLDY    64  61  90 CALM      30.02F
DYERSBURG      CLOUDY    64  54  68 NE3       30.04S
UNION CITY     PTCLDY    63  57  82 E5        30.03S
PARIS          PTCLDY    57  55  94 N6        30.05S
HUNTINGDON     CLEAR     59  57  92 E3        30.04S
LEXINGTON      CLOUDY    63  61  94 CALM      30.03R
SAVANNAH       PTCLDY    66  66 100 CALM      30.02F
$$

TNZ008-025-027-028-033-062-065-066-190700-
NORTH MIDDLE TENNESSEE

CITY           SKY/WX    TMP DP  RH WIND       PRES   REMARKS
NASHVILLE      CLEAR     63  59  87 CALM      30.05R
DICKSON        PTCLDY    61  57  88 CALM      30.04S
PORTLAND       CLEAR     59  55  88 CALM      30.05S
CLARKSVILLE    CLEAR     60  55  83 CALM      30.05S
LEBANON        PTCLDY    57  57 100 CALM      30.03S
SMYRNA         PTCLDY    61  59  93 CALM      30.05R
MURFREESBORO   PTCLDY    61  58  90 CALM      30.03S
COOKEVILLE     CLEAR     54  54 100 CALM      30.05S
LIVINGSTON     CLEAR     60  56  87 E5        30.07F
GALLATIN       CLEAR     62  58  87 NE3       30.05S
CROSSVILLE     CLEAR     60  55  83 CALM      30.09S
$$

TNZ061-075-076-078-094-096-097-190700-
SOUTH MIDDLE TENNESSEE

CITY           SKY/WX    TMP DP  RH WIND       PRES   REMARKS
LEWISBURG      MOCLDY    62  59  90 CALM      30.03S
FAYETTEVILLE   PTCLDY    63  57  82 NE6       30.03S
TULLAHOMA      PTCLDY    63  59  88 E3        30.05S
WINCHESTER     PTCLDY    61  57  88 CALM      30.04S
MCMINNVILLE    MOCLDY    61  61 100 CALM      30.05S
COLUMBIA       MOCLDY    61  61 100 CALM      30.02R
SHELBYVILLE    MOCLDY    59  59 100 CALM      30.04S
$$

TNZ017-018-042-046-047-190700-
NORTHEAST TENNESSEE

CITY           SKY/WX    TMP DP  RH WIND       PRES   REMARKS
TRI CITIES     CLEAR     55  52  89 N3        30.09S
ELIZABETHTON   CLEAR     55  52  88 E5        30.09F
$$

TNZ012-013-036-069-073-074-190700-
CENTRAL EAST TENNESSEE

CITY           SKY/WX    TMP DP  RH WIND       PRES   REMARKS
KNOXVILLE      MOCLDY    61  57  87 NE5       30.04S
OAK RIDGE      CLEAR     60  58  92 CALM      30.07S
GATLINBURG     CLEAR     57  55  94 CALM      30.06S
MORRISTOWN     PTCLDY    61  55  82 E5        30.07F
$$

TNZ083-085-099-190700-
SOUTHEAST TENNESSEE

CITY           SKY/WX    TMP DP  RH WIND       PRES   REMARKS
CHATTANOOGA    PTCLDY    65  60  84 N3        30.04R
$$

SKY/WX REPORTED AS FAIR MEANS FEW OR NO CLOUDS BELOW
12 THOUSAND FEET.



USA.gov is the U.S. government's official web portal to all federal, state and local government web resources and services.